Main page
METAR-TAF:

METAR-TAF

Airports :

Gachsaran, Iran

latitude: 30-26N, longitude: 050-46E, elevation: 738 m

Current weather observation

The report was made 58 minutes ago, at 22:00 UTC
Calm wind
Temperature 15°C
Humidity 94%
Pressure 1019 hPa
Visibility: 8000 m
Few clouds at a height of 4000 ft
Scattered clouds at a height of 10000 ft

METAR: OIAH 192200Z 00000KT 8000 FEW040 SCT100 15/14 Q1019

Time: 02:28 (22:58 UTC)


TAF: missing

Weather observations and forecasts of more than 4000 airports (METAR and TAF reports).

The available stations are represented by yellow and red dots on the map.

Hover mouse over dot to see the name of the station.

Then click to see weather observations and forecasts.

To change the map : click on the green buttons with a black cross to zoom in, on the green button with a dash to zoom out, or on the green arrows for adjacent maps.


METAR-TAF: